Tracking 18795 objects as of 23-August-2017
HD Live streaming from Space Station
objects crossing your sky now

COSMOS 1626

Track COSMOS 1626 now!
10-day predictions
COSMOS 1626 is classified as:


NORAD ID: 15494
Int'l Code: 1985-009A
Perigee: 503.4 km
Apogee: 507.4 km
Inclination: 82.5 °
Period: 94.6 minutes
Semi major axis: 6876 km
RCS: 7.281 m2 (large)
Launch date: January 24, 1985
Source: Commonwealth of Independent States (former USSR) (CIS)
Launch site: PLESETSK MISSILE AND SPACE COMPLEX (PKMTR)
Your satellite tracking list
Your tracking list is empty





NASA's NSSDC Master Catalog

Two Line Element Set (TLE):
1 15494U 85009A   17234.95891504 +.00001145 +00000-0 +47961-4 0  9995
2 15494 082.4813 182.8703 0002922 140.6471 219.4978 15.22523005778645
Source of the keplerian elements: AFSPC